Fairbanks, AK

4:32 PM AKST on December 13, 2019 (GMT -0900)
Fairbanks International

Weather History for PAFA - January, 1975

Change the Weather History Date:

Friday, January 3, 1975

  Actual Average Record
Temperature  
Mean Temperature -48 °F -7 °F  
Max Temperature -45 °F 2 °F 29 °F (1968)
Min Temperature -53 °F -16 °F -57 °F (1969)
Degree Days  
Heating Degree Days 114 72  
Month to date heating degree days 216  
Since 1 July heating degree days 6488  
Cooling Degree Days 0 0  
Month to date cooling degree days 0  
Year to date cooling degree days 0  
Moisture  
Dew Point -56 °F    
Average Humidity 64    
Maximum Humidity 67    
Minimum Humidity 63    
Precipitation  
Precipitation 0.00 in 0.02 in 0.22 in (1950)
Month to date precipitation 0.06  
Year to date precipitation 0.06  
Snow  
Snow 0.00 in 0.40 in 5.80 in (1973)
Month to date snowfall 1.2  
Since 1 July snowfall 39.1  
Snow Depth -    
Sea Level Pressure  
Sea Level Pressure 30.36 in    
Wind  
Wind Speed 1 mph (NNE)    
Max Wind Speed 5 mph    
Max Gust Speed -    
T = Trace of Precipitation, MM = Missing Value Source: NWS Daily Summary

Daily Weather History Graph

Daily Weather History Graph

Search for Another Location

Airport or City:

Astronomy

Jan. 03, 1975 Rise Set
Actual Time 9:52 AM AHST 2:00 PM AHST
Civil Twilight 8:31 AM AHST 3:20 PM AHST
Nautical Twilight 7:21 AM AHST 4:30 PM AHST
Astronomical Twilight 6:20 AM AHST 5:31 PM AHST
Moon No Moon Rise 10:13 AM AHST (1/3)
Length of Visible Light 6h 48m
Length of Day
4h 07m
Waning Gibbous, 60% of the Moon is Illuminated
Jan 3
Waning Gibbous
Jan 4
Last Quarter
Jan 12
New
Jan 20
First Quarter
Jan 27
Full

Hourly Weather History & Observations

Time (AHST) Temp. Windchill Dew Point Humidity Pressure Visibility Wind Dir Wind Speed Gust Speed Precip Events Conditions
12:00 AM -45.0 °F - -52.1 °F 67% 30.22 in 0.2 mi Calm Calm - N/A Fog Fog
1:00 AM -45.0 °F - -53.0 °F 64% 30.25 in 0.2 mi Calm Calm - N/A Fog Fog
2:00 AM -47.0 °F -64.8 °F -54.9 °F 63% 30.27 in 0.4 mi NE 4.6 mph - N/A Fog Fog
2:23 AM - - - N/A% 30.19 in 0.2 mi NE 3.5 mph - N/A Fog Fog
3:00 AM -47.0 °F - -54.9 °F 63% 30.30 in 0.2 mi Calm Calm - N/A Fog Fog
4:00 AM -47.9 °F -62.6 °F -56.0 °F 63% 30.32 in 0.2 mi NE 3.5 mph - N/A Fog Fog
5:00 AM -47.9 °F - -56.0 °F 63% 30.34 in 0.2 mi Calm Calm - N/A Fog Fog
5:23 AM - - - N/A% 30.26 in 0.5 mi Calm Calm - N/A Fog Fog
6:00 AM -47.9 °F - -56.0 °F 63% 30.36 in 0.2 mi Calm Calm - N/A Fog Fog
7:00 AM -47.9 °F -62.6 °F -56.0 °F 63% 30.38 in 0.2 mi North 3.5 mph - N/A Fog Fog
8:00 AM -47.9 °F - -56.0 °F 63% 30.39 in 0.2 mi Calm Calm - N/A Fog Fog
9:00 AM -49.0 °F - -56.9 °F 63% 30.40 in 0.2 mi North 3.5 mph - N/A Fog Fog
10:00 AM -47.9 °F - -56.0 °F 63% 30.41 in 0.2 mi Calm Calm - N/A Fog Fog
11:00 AM -47.9 °F -62.6 °F -56.0 °F 63% 30.42 in 0.2 mi North 3.5 mph - N/A Fog Fog
12:00 PM -47.0 °F - -54.9 °F 63% 30.43 in 0.2 mi Calm Calm - N/A Fog Fog
1:00 PM -47.0 °F - -54.9 °F 63% 30.43 in 0.2 mi Calm Calm - N/A Fog Fog
2:00 PM -49.0 °F - -56.9 °F 63% 30.43 in 0.2 mi Calm Calm - N/A Fog Fog
3:00 PM -50.1 °F - -58.0 °F 63% 30.43 in 0.2 mi ESE 3.5 mph - N/A Fog Fog
3:37 PM - - - N/A% 30.34 in 0.1 mi Calm Calm - N/A Fog Fog
4:00 PM -49.0 °F - -56.9 °F 63% 30.43 in 0.1 mi Calm Calm - N/A Fog Fog
5:00 PM -50.1 °F - -58.0 °F 63% 30.43 in 0.1 mi Calm Calm - N/A Fog Fog
6:00 PM -52.1 °F - -59.1 °F 66% 30.43 in 0.1 mi North 3.5 mph - N/A Fog Fog
7:00 PM -53.0 °F - -60.0 °F 66% 30.42 in 0.1 mi Calm Calm - N/A Fog Fog
8:00 PM - - - N/A% 30.41 in 0.1 mi Calm Calm - N/A Fog Fog
9:00 PM - - - N/A% 30.39 in 0.1 mi NNE 3.5 mph - N/A Fog Fog
10:00 PM - - - N/A% 30.38 in 0.1 mi Calm Calm - N/A Fog Fog
11:00 PM - - - N/A% 30.38 in 0.1 mi SW 3.5 mph - N/A Fog Fog